Weather History for Missoula, MT

Change the Weather History Date:

Saturday, July 6, 2013

  Actual Average Record
Temperature  
Mean Temperature 68 °F 67 °F  
Max Temperature 86 °F 83 °F 107 °F (2007)
Min Temperature 50 °F 50 °F 36 °F (1952)
Degree Days  
Heating Degree Days 0 2  
Month to date heating degree days 0 13  
Since 1 June heating degree days 141 173  
Since 1 July heating degree days 0 13  
Cooling Degree Days 3 4  
Month to date cooling degree days 62 19  
Year to date cooling degree days 109 62  
Since 1 June cooling degree days 105 56  
Growing Degree Days 18 (Base 50)    
Moisture  
Dew Point 39 °F    
Average Humidity 42    
Maximum Humidity 68    
Minimum Humidity 15    
Precipitation  
Precipitation 0.00 in 0.04 in 0.91 in (1909)
Month to date precipitation 0.00 0.24  
Year to date precipitation 5.81 8.09  
Snow  
Snow 0.00 in - - ()
Month to date snowfall 0.0  
Year to date snowfall 27.4  
Since 1 July snowfall 0.0  
Snow Depth 0.00 in    
Sea Level Pressure  
Sea Level Pressure 29.85 in    
Wind  
Wind Speed 5 mph (North)    
Max Wind Speed 15 mph    
Max Gust Speed 25 mph    
Visibility 10 miles    
Events      
T = Trace of Precipitation, MM = Missing Value Source: NWS Daily Summary

Daily Weather History Graph

Daily Weather History Graph

Search for Another Location

Airport:

Trip Planner

Search our weather history database for the weather conditions in past years. The results will help you decide how hot, cold, wet, or windy it might be!

Date:

Astronomy

Jul. 06, 2013 Rise Set
Actual Time 5:49 AM MDT 9:32 PM MDT
Civil Twilight 5:10 AM MDT 10:11 PM MDT
Nautical Twilight 4:17 AM MDT 11:04 PM MDT
Astronomical Twilight 3:03 AM MDT 12:17 AM MDT
Moon 4:42 AM MDT (7/6) 8:13 PM MDT (7/6)
Length of Visible Light 17h 01m
Length of Day
15h 43m
Waning Crescent, 2% of the Moon is Illuminated
Jul 6
Waning Crescent
Jul 8
New
Jul 15
First Quarter
Jul 22
Full
Jul 29
Last Quarter

Hourly Weather History & Observations

Time (MDT) Temp. Dew Point Humidity Pressure Visibility Wind Dir Wind Speed Gust Speed Precip Events Conditions
12:53 AM 62.1 °F 42.1 °F 48% 29.84 in 10.0 mi North 8.1 mph - N/A   Clear
1:53 AM 57.9 °F 41.0 °F 53% 29.85 in 10.0 mi NW 8.1 mph - N/A   Clear
2:53 AM 57.9 °F 39.9 °F 51% 29.86 in 10.0 mi NNW 4.6 mph - N/A   Clear
3:53 AM 55.9 °F 42.1 °F 60% 29.88 in 10.0 mi SE 4.6 mph - N/A   Clear
4:53 AM 51.1 °F 41.0 °F 68% 29.89 in 10.0 mi NNE 3.5 mph - N/A   Clear
5:53 AM 52.0 °F 41.0 °F 66% 29.91 in 10.0 mi SE 3.5 mph - N/A   Clear
6:53 AM 53.1 °F 43.0 °F 69% 29.93 in 10.0 mi NNW 3.5 mph - N/A   Clear
7:53 AM 59.0 °F 43.0 °F 55% 29.92 in 10.0 mi Calm Calm - N/A   Clear
8:53 AM 62.1 °F 44.1 °F 52% 29.93 in 10.0 mi Calm Calm - N/A   Clear
9:53 AM 66.9 °F 43.0 °F 42% 29.92 in 10.0 mi Calm Calm - N/A   Clear
10:53 AM 71.1 °F 44.1 °F 38% 29.91 in 10.0 mi Calm Calm - N/A   Clear
11:53 AM 75.0 °F 41.0 °F 29% 29.89 in 10.0 mi East 4.6 mph - N/A   Clear
12:53 PM 78.1 °F 33.1 °F 19% 29.86 in 10.0 mi Variable 5.8 mph - N/A   Clear
1:53 PM 80.1 °F 32.0 °F 17% 29.85 in 10.0 mi Variable 4.6 mph - N/A   Clear
2:53 PM 82.0 °F 34.0 °F 18% 29.82 in 10.0 mi NNW 5.8 mph - N/A   Clear
3:53 PM 84.0 °F 32.0 °F 15% 29.80 in 10.0 mi Variable 6.9 mph - N/A   Clear
4:53 PM 86.0 °F 37.9 °F 18% 29.78 in 10.0 mi NNE 6.9 mph - N/A   Clear
5:53 PM 84.9 °F 37.9 °F 19% 29.77 in 10.0 mi North 9.2 mph 18.4 mph N/A   Clear
6:53 PM 82.9 °F 37.0 °F 19% 29.76 in 10.0 mi North 12.7 mph - N/A   Clear
7:53 PM 82.0 °F 37.0 °F 20% 29.75 in 10.0 mi North 9.2 mph - N/A   Clear
8:53 PM 78.1 °F 37.0 °F 23% 29.77 in 10.0 mi North 12.7 mph - N/A   Clear
9:53 PM 75.0 °F 37.9 °F 26% 29.78 in 10.0 mi North 11.5 mph 19.6 mph N/A   Clear
10:53 PM 69.1 °F 39.9 °F 35% 29.81 in 10.0 mi West 4.6 mph - N/A   Clear
11:53 PM 66.0 °F 39.9 °F 38% 29.82 in 10.0 mi Variable 3.5 mph - N/A   Clear